TimeICT,TemperatureF,Dew PointF,Humidity,Sea Level PressureIn,VisibilityMPH,Wind Direction,Wind SpeedMPH,Gust SpeedMPH,PrecipitationIn,Events,Conditions,WindDirDegrees,DateUTC
1:00 AM,77,76,95,29.84,4,Calm,Calm,,,,Mist,,2013-10-01 18:00:00
6:00 AM,73.4,73.4,100,29.83,-9999.0,Calm,Calm,-,N/A,Fog,Fog,0,2013-10-01 23:00:00
7:00 AM,74,74,100,29.86,0,Calm,Calm,,,Fog,Heavy Fog,,2013-10-02 00:00:00
7:00 AM,71.6,71.6,100,29.86,-9999.0,SW,3.5,-,N/A,Fog,Fog,220,2013-10-02 00:00:00
8:00 AM,73.4,73.4,100,29.89,1.9,SW,4.6,-,N/A,,Partly Cloudy,230,2013-10-02 01:00:00
9:00 AM,77.0,77.0,100,29.89,6.2,SW,4.6,-,N/A,,Mostly Cloudy,220,2013-10-02 02:00:00
10:00 AM,84.2,78.8,84,29.89,5.0,Calm,Calm,-,N/A,,Mostly Cloudy,0,2013-10-02 03:00:00
11:00 AM,87.8,77.0,70,29.89,5.0,Calm,Calm,-,N/A,,Mostly Cloudy,0,2013-10-02 04:00:00
12:00 PM,89.6,77.0,66,29.89,5.0,WSW,3.5,-,N/A,,Scattered Clouds,240,2013-10-02 05:00:00
1:00 PM,93,78,54,29.83,5,NNW,3.5,,,,Haze,330,2013-10-02 06:00:00
1:00 PM,91.4,73.4,55,29.83,6.2,West,3.5,-,N/A,,Mostly Cloudy,270,2013-10-02 06:00:00
3:00 PM,91.4,73.4,55,29.77,5.0,WNW,3.5,-,N/A,,Mostly Cloudy,290,2013-10-02 08:00:00
4:00 PM,82.4,73.4,74,29.77,4.3,North,15.0,-,N/A,,Overcast,10,2013-10-02 09:00:00
5:00 PM,86.0,75.2,70,29.77,4.3,NNE,6.9,-,N/A,,Mostly Cloudy,20,2013-10-02 10:00:00
6:00 PM,82.4,75.2,79,29.77,4.3,NNE,5.8,-,N/A,,Mostly Cloudy,30,2013-10-02 11:00:00
7:00 PM,82,76,78,29.81,5,Calm,Calm,,,,Mist,,2013-10-02 12:00:00
7:00 PM,78.8,77.0,94,29.80,4.3,SSE,3.5,-,N/A,,Mostly Cloudy,160,2013-10-02 12:00:00
8:00 PM,77.0,77.0,100,29.83,4.3,Calm,Calm,-,N/A,,Mostly Cloudy,0,2013-10-02 13:00:00
9:00 PM,77.0,77.0,100,29.86,4.3,Calm,Calm,-,N/A,,Mostly Cloudy,0,2013-10-02 14:00:00
10:00 PM,77.0,77.0,100,29.89,4.3,Calm,Calm,-,N/A,,Mostly Cloudy,0,2013-10-02 15:00:00
11:00 PM,75.2,75.2,100,29.92,3.7,SSW,3.5,-,N/A,,Overcast,210,2013-10-02 16:00:00